Location: Lecco
(45.8566°N, 9.3977°E)
Time: 12:42:54
(UTC+02:00)

Explorer 11/Cluster Stage 4 - Pass Details

Date: 15 August 2020
Orbit: 467 x 1258 km, 28.8° (Epoch: 24 September)

Event Time Altitude Azimuth Distance (km) Brightness Sun altitude
Rises 23:40:07 0° 243° (WSW) 4,027 10.2 -25.8°
Reaches altitude 10° 23:43:34 10° 229° (SW) 3,145 9.5 -26.1°
Enters shadow 23:45:22 15° 218° (SW) 2,781 9.1 -26.2°
Maximum altitude 23:49:24 22° 182° (S) 2,414 - -26.5°
Drops below altitude 10° 23:55:21 10° 136° (SE) 3,216 - -27.0°
Sets 23:58:56 0° 122° (ESE) 4,138 - -27.3°
